Regional Weather Roundup
Issued by NWS

Home | Current Version | Previous Version | Graphics & Text | Print | Product List | Glossary On
Versions: 1 2 3 4 5 6 7 8 9 10 11 12 13 14 15 16 17 18 19 20 21 22 23 24 25 26 27 28 29 30 31 32 33 34 35 36 37 38 39 40 41 42 43 44 45 46 47 48 49 50
000
ASUS43 KMPX 051610
RWRMN
WEATHER ROUNDUP FOR MINNESOTA
NATIONAL WEATHER SERVICE TWIN CITIES/CHANHASSEN MN
1100 AM CDT TUE MAY 05 2015


NOTE: "FAIR" INDICATES FEW OR NO CLOUDS BELOW 12,000 FEET WITH NO
SIGNIFICANT WEATHER AND/OR OBSTRUCTIONS TO VISIBILITY. N/A MEANS
CURRENT SKY AND/OR WEATHER CONDITIONS ARE NOT AVAILABLE.

MNZ060>063-068>070-051700-
   Twin Cities Metro

CITY           SKY/WX    TMP DP  RH WIND       PRES   REMARKS
TWIN CITIES    MOSUNNY   65  45  48 E17G24    30.20S
ST PAUL        SUNNY     66  45  46 SE15      30.21S
CRYSTAL        SUNNY     68  42  38 E14       30.19S
BLAINE         MOSUNNY   66  41  39 E14       30.20F
LAKEVILLE      PTSUNNY   63  48  59 SE13G20   30.20R
EDEN PRAIRIE   SUNNY     64  47  53 SE14      30.18S
SOUTH ST PAUL  SUNNY     66  43  42 E9        30.20S
LAKE ELMO      FAIR      64  41  42 E15G21    30.22S
$$
MNZ001>005-007-008-013>017-022>024-027-028-051700-
   Northwest Minnesota

CITY           SKY/WX    TMP DP  RH WIND       PRES   REMARKS
BEMIDJI        SUNNY     66  22  19 SE17G25   30.19F
HALLOCK        SUNNY     70  19  14 S23G32    30.13F
ROSEAU         SUNNY     70  25  18 S15G24    30.16F
WARROAD        SUNNY     68  34  28 S9G17     30.18S
THIEF RVR FALL SUNNY     68  25  19 S18G24    30.17F
CROOKSTON      MOSUNNY   70  23  17 S18G25    30.16F
FOSSTON        SUNNY     66  19  16 SE17      30.18F
DETROIT LAKES  SUNNY     64  23  20 SE18G25   30.18F
MOORHEAD       SUNNY     68  21  17 S18G25    30.16S
PARK RAPIDS    SUNNY     68  19  15 SE18      30.19F
MAHNOMEN       FAIR      67  22  18 SE16G23   30.17S
$$
MNZ006-009>011-018-025>026-051700-
   North Central Minnesota

CITY           SKY/WX    TMP DP  RH WIND       PRES   REMARKS
BAUDETTE       SUNNY     68  26  20 S12G22    30.19F
FLAG ISLAND    SUNNY     54  34  47 SE9       30.18S
INTL FALLS     SUNNY     67  25  20 S6G18     30.22S
WASKISH        SUNNY     68  30  24 SE9G17    30.20F
BIG FORK       SUNNY     66  25  20 SE9G18    30.23S
LONGVILLE      SUNNY     66  19  16 SE15G22   30.21F
GRAND RAPIDS   SUNNY     64  25  22 SE15      30.23F
CRANE LAKE     SUNNY     64  19  17 S10       30.26S
ORR            SUNNY     66  16  14 S12G17    30.22F
COOK           SUNNY     64  25  22 S6G18     30.24F
WALKER         FAIR      64  25  22 SE8       30.20F
$$
MNZ012-019>021-037-051700-
   Northeast Minnesota

CITY           SKY/WX    TMP DP  RH WIND       PRES   REMARKS
DULUTH         SUNNY     64  30  27 SE10      30.26F
ELY            SUNNY     64  19  17 SE8       30.25F
HIBBING        SUNNY     66  21  18 SE15      30.24F
EVELETH        SUNNY     64  23  20 SE10G20   30.26F
DULUTH HARBOR    N/A     46  34  61 E5        30.28F
TWO HARBORS    SUNNY     66  39  37 SE7       30.26F
SILVER BAY     SUNNY     64  28  25 SE9       30.27F
GRAND MARAIS     N/A     52  30  43 CALM      30.30F
G MARAIS ARPRT SUNNY     61  19  20 S10G17    30.31S
$$
MNZ029>031-032-039>041-046>048-054>057-064-051700-
   West Central Minnesota

CITY           SKY/WX    TMP DP  RH WIND       PRES   REMARKS
FERGUS FALLS   SUNNY     66  28  24 SE17      30.16F
WHEATON        SUNNY     68  30  24 SE17G24   30.14F
MORRIS         SUNNY     72  27  18 SE17      30.13F
ALEXANDRIA     SUNNY     68  29  23 E21       30.17F
ELBOW LAKE     FAIR      66  30  25 SE13G20   30.15F
WADENA         SUNNY     64  28  25 SE14      30.18F
GLENWOOD       SUNNY     68  32  26 E17       30.17F
APPLETON       SUNNY     72  27  18 SE16G22   30.12F
BENSON         SUNNY     70  25  18 SE14G20   30.14S
ORTONVILLE     SUNNY     70  27  19 SE12G18   30.12F
MADISON        SUNNY     70  27  19 SE16G25   30.12F
WILLMAR        FAIR      70  37  30 SE17G23   30.16S
$$
MNZ033>034-036-042>043-049>051-058-059-051700-
   Central Minnesota

CITY           SKY/WX    TMP DP  RH WIND       PRES   REMARKS
ST CLOUD       SUNNY     65  39  38 E9G20     30.19S
SAUK CENTRE    FAIR      66  36  33 E16       30.18S
PAYNESVILLE    SUNNY     63  39  41 NE13      30.18S
AITKIN         SUNNY     68  16  13 SE8G18    30.20F
PINE RIVER     SUNNY     64  32  29 SE14      30.23F
BRAINERD       SUNNY     63  29  27 SE16G23   30.22S
STAPLES        SUNNY     64  23  20 SE10G18   30.19F
LONG PRAIRIE   FAIR      64  36  34 E15       30.19F
LITTLE FALLS   SUNNY     66  34  30 E9G17     30.19F
LITCHFIELD     SUNNY     66  45  45 E17       30.17F
BUFFALO        SUNNY     65  43  44 E14       30.20S
MAPLE LAKE     SUNNY     65  47  50 E9        30.19F
$$
MNZ037-044-045-052-053-051700-
   East Central Minnesota

CITY           SKY/WX    TMP DP  RH WIND       PRES   REMARKS
PRINCETON      SUNNY     68  37  32 E12       30.21S
MORA           SUNNY     64  30  27 SE10G17   30.24S
CAMBRIDGE      SUNNY     70  45  40 E12       30.20S
RUSH CITY      SUNNY     66  28  23 SE9G16    30.23S
MOOSE LAKE     SUNNY     66  32  28 SE7       30.22F
HINCKLEY       FAIR      66  30  26 SE15G21   30.23F
CLOQUET        SUNNY     64  27  24 E12G17    30.25F
MCGREGOR       SUNNY     66  30  26 SE15      30.23F
$$
MNZ071>073-080-081-089-090-097-098-051700-
   Southwest Minnesota

CITY           SKY/WX    TMP DP  RH WIND       PRES   REMARKS
MONTEVIDEO     SUNNY     72  34  25 SE17      30.14S
GRANITE FALLS  SUNNY     70  34  26 E13G20    30.14F
CANBY          SUNNY     69  31  24 SE15      30.13F
MARSHALL       MOSUNNY   70  37  30 E21       30.11F
REDWOOD FALLS  PTSUNNY   67  46  47 E14G23    30.13F
OLIVIA         SUNNY     68  43  40 E17G23    30.13F
PIPESTONE      PTSUNNY   64  37  36 E14G20    30.09F
WINDOM         CLOUDY    61  45  55 E8        30.13S
WORTHINGTON    CLOUDY    61  48  63 E14       30.12S
JACKSON        CLOUDY    59  54  82 E14       30.13S
TRACY          PTSUNNY   65  41  41 E16       30.12F
SLAYTON        CLOUDY    62  46  54 E15       30.12S
$$
MNZ065>067-074>077-082>085-091>093-051700-
   South Central Minnesota

CITY           SKY/WX    TMP DP  RH WIND       PRES   REMARKS
MANKATO        CLOUDY    61  52  72 E20G28    30.17S
NEW ULM        MOSUNNY   63  46  55 E10       30.15S
ST JAMES       CLOUDY    59  52  77 E13       30.16R
FAIRMONT       CLOUDY    57  50  77 E13       30.14S
GLENCOE        SUNNY     67  50  54 E18G24    30.17S
FARIBAULT      CLOUDY    61  52  72 E16G23    30.20R
OWATONNA       PTSUNNY   55  52  88 E16G22    30.18S
WASECA         CLOUDY    55  50  82 E20G25    30.18S
ALBERT LEA     CLOUDY    55  52  88 E16G23    30.17S
$$
MNZ078>079-086>088-094>096-051700-
   Southeast Minnesota

CITY           SKY/WX    TMP DP  RH WIND       PRES   REMARKS
ROCHESTER      CLOUDY    53  49  86 E15       30.22S
RED WING       MOSUNNY   64  43  45 SE15      30.21S
STANTON        CLOUDY    64  46  53 SE12      30.19R
DODGE CENTER   CLOUDY    54  52  94 E20       30.20F
WINONA         CLOUDY    55  50  82 SE14      30.25R
AUSTIN         CLOUDY    54  50  87 E15G23    30.18R
PRESTON        CLOUDY    51  49  90 E13G18    30.22S
$$
ABBREVIATIONS USED IN REMARKS
   TC - TEMPERATURES IN CELSIUS
  WCI - WIND CHILL INDEX
   HX - HEAT INDEX
  VSB - VISIBILITY
$$



USA.gov is the U.S. government's official web portal to all federal, state and local government web resources and services.